x

Mid Gulf - 180 Nm South Of Southwest Pass, La (42001) Wave Buoy

11:50am - Tue 21st Nov 2017 All times are UTC.

  • Sig Wave height 3.3ft
  • Swell Direction
  • Peak Period 6s
  • Average Period 5s
  • Wind
    9mph, 11mph gusts
  • Sea Temp 82°f
  • Air Temp 75°f
  • Sea Pressure 1014.5mb

More Historic Weather Station data

Upgrade to MSW Pro to gain access to the past 30 days of data for over 8000 Wavebouys and Weather Stations around the globe.

Join

Comparision Forecast

View Surf forecast
   
Tue 11/21 11:50am 3.5ft 6s 5s 9 11 mph 1014.5mb 82f 75f
11:40am 3.5ft  -  5s 9 13 mph 1014.3mb 82f 74f
11:30am  -   -   -  9 11 mph 1014.4mb 82f 74f
11:20am  -   -   -  9 13 mph 1014.2mb 82f 75f
11:10am  -   -   -  9 13 mph 1014.4mb 82f 74f
11:00am  -   -   -  7 11 mph 1014.4mb 82f 74f
10:50am 3.5ft 6s 5s 7 9 mph 1014.6mb 82f 74f
10:40am  -   -   -  9 11 mph 1014.4mb 82f 74f
10:30am  -   -   -  7 11 mph 1014.4mb 82f 74f
10:20am  -   -   -  4 9 mph 1014.4mb 82f 74f
10:10am  -   -   -  7 11 mph 1014.3mb 82f 74f
10:00am  -   -   -  9 13 mph 1014.1mb 82f 74f
9:50am 3ft 7s 5s 9 13 mph 1014mb 82f 74f
9:40am  -   -   -  9 13 mph 1013.7mb 82f 74f
9:30am  -   -   -  7 13 mph 1013.9mb 82f 74f
9:20am  -   -   -  9 16 mph 1013.9mb 82f 74f
9:10am  -   -   -  9 16 mph 1014mb 82f 75f
9:00am  -   -   -  11 16 mph 1013.6mb 82f 75f
8:50am 3.5ft 7s 5s 11 18 mph 1013.6mb 82f 74f
8:40am  -   -   -  13 18 mph 1013.6mb 82f 74f
8:30am  -   -   -  13 18 mph 1013.8mb 82f 74f
8:20am  -   -   -  13 18 mph 1013.8mb 82f 74f
8:10am  -   -   -  13 20 mph 1014.1mb 82f 74f
8:00am  -   -   -  13 18 mph 1014mb 82f 74f
7:50am 3.5ft 7s 5s 13 18 mph 1013.9mb 82f 74f
7:40am  -   -   -  16 22 mph 1013.8mb 82f 74f
7:30am  -   -   -  16 22 mph 1013.9mb 82f 74f
7:20am  -   -   -  16 20 mph 1013.8mb 82f 74f
7:10am  -   -   -  13 20 mph 1014.3mb 82f 74f
7:00am  -   -   -  11 16 mph 1014.5mb - 74f
6:50am 3.5ft 6s 5s 11 18 mph 1014.9mb 82f 74f
6:40am  -   -   -  11 16 mph 1015.1mb 82f 74f
6:30am  -   -   -  11 16 mph 1015.3mb 82f 74f
6:20am  -   -   -  11 16 mph 1015.4mb 82f 74f
6:10am  -   -   -  9 16 mph 1015.7mb 82f 74f
6:00am  -   -   -  9 13 mph 1016mb - 74f
5:50am 3.5ft 7s 5s 7 13 mph 1016mb 82f 74f
5:40am 3.5ft  -  5s 11 16 mph 1016mb 82f 74f
5:30am  -   -   -  11 16 mph 1016mb 82f 74f
5:20am  -   -   -  9 13 mph 1016.3mb 82f 74f
5:10am  -   -   -  9 13 mph 1016.5mb 82f 74f
5:00am  -   -   -  7 11 mph 1016.7mb - 74f
4:50am 4ft 8s 6s 7 11 mph 1016.7mb 82f 74f
4:40am  -   -   -  9 13 mph 1016.8mb 82f 74f
4:30am  -   -   -  9 13 mph 1017.7mb 82f 74f
4:20am  -   -   -  9 13 mph 1016.9mb 82f 74f
4:10am  -   -   -  9 13 mph 1016.9mb 82f 74f
4:00am  -   -   -  7 13 mph 1017mb 82f 74f
3:50am 4ft 7s 5s 9 11 mph 1017.1mb 82f 74f
3:40am  -   -   -  9 13 mph 1017mb 82f 74f
3:30am  -   -   -  9 13 mph 1017.2mb 82f 74f
3:20am  -   -   -  9 13 mph 1017.3mb 82f 74f
3:10am  -   -   -  9 13 mph 1017.4mb 82f 74f
3:00am  -   -   -  7 13 mph 1017.3mb 82f 74f
2:50am 4.5ft 7s 5s 9 13 mph 1017.3mb 82f 74f
2:40am  -   -   -  9 16 mph 1017.3mb 82f 74f
2:30am  -   -   -  9 13 mph 1017.3mb 82f 74f
2:20am  -   -   -  9 11 mph 1017.5mb 82f 74f
2:10am  -   -   -  9 13 mph 1017.6mb 82f 74f
2:00am  -   -   -  11 16 mph 1017.7mb 82f 74f
1:50am 5ft 8s 6s 9 16 mph 1017.7mb 82f 74f
1:40am  -   -   -  9 13 mph 1017.6mb 82f 74f
1:30am  -   -   -  9 13 mph 1017.5mb 82f 74f
1:20am  -   -   -  9 16 mph 1017.5mb 82f 74f
1:10am  -   -   -  9 13 mph 1017.5mb 82f 74f
1:00am  -   -   -  9 13 mph 1017.6mb 82f 74f
12:50am 5ft 8s 6s 7 13 mph 1017.4mb 82f 74f
12:40am  -   -   -  9 13 mph 1017.4mb 82f 74f
12:30am  -   -   -  7 16 mph 1017.3mb 82f 74f
12:20am  -   -   -  9 13 mph 1017.3mb 82f 74f
12:10am  -   -   -  9 13 mph 1017mb 82f 74f
12:00am  -   -   -  7 11 mph 1017.1mb 82f 74f
Mon 11/20 11:50pm 5.5ft 8s 6s 9 13 mph 1017.1mb 82f 74f
11:40pm 5.5ft  -  6s 9 13 mph 1017mb 82f 74f
11:30pm  -   -   -  9 16 mph 1017mb 82f 74f
11:20pm  -   -   -  9 16 mph 1016.8mb 82f 74f
11:10pm  -   -   -  9 13 mph 1016.8mb 82f 74f
11:00pm  -   -   -  9 13 mph 1016.7mb 82f 74f
10:50pm 6ft 8s 6s 9 13 mph 1016.6mb 82f 74f
10:40pm  -   -   -  9 13 mph 1016.8mb 82f 74f
10:30pm  -   -   -  11 16 mph 1016.8mb 82f 74f
10:20pm  -   -   -  11 18 mph 1016.6mb 82f 74f
10:10pm  -   -   -  11 16 mph 1016.5mb 82f 74f
10:00pm  -   -   -  11 18 mph 1016.6mb 82f 74f
9:50pm 6ft 8s 6s 9 16 mph 1016.5mb 82f 74f
9:40pm  -   -   -  11 18 mph 1016.5mb 82f 74f
9:30pm  -   -   -  11 18 mph 1016.4mb 82f 74f
9:20pm  -   -   -  11 16 mph 1016.4mb 82f 74f
9:10pm  -   -   -  11 16 mph 1016.5mb 82f 74f
9:00pm  -   -   -  11 16 mph 1016.6mb 82f 74f
8:50pm 5.5ft 8s 6s 11 18 mph 1016.7mb 82f 74f
8:40pm 5.5ft  -  6s 11 16 mph 1016.8mb 82f 74f
8:30pm  -   -   -  9 16 mph 1016.8mb 82f 74f
8:20pm  -   -   -  11 18 mph 1016.9mb 82f 74f
8:10pm  -   -   -  11 18 mph 1016.9mb 82f 74f
8:00pm  -   -   -  11 16 mph 1017mb 82f 74f
7:50pm 6ft 8s 6s 11 18 mph 1016.9mb 82f 74f
7:40pm  -   -   -  11 18 mph 1017mb 82f 73f
7:30pm  -   -   -  13 20 mph 1017.1mb 82f 74f
7:20pm  -   -   -  13 18 mph 1017.2mb 82f 74f
7:10pm  -   -   -  13 18 mph 1017.2mb 82f 74f
7:00pm  -   -   -  13 18 mph 1017.4mb 82f 74f
6:50pm 6ft 8s 6s 13 20 mph 1017.6mb 82f 74f
6:40pm  -   -   -  13 18 mph 1017.8mb 82f 74f
6:30pm  -   -   -  13 20 mph 1017.9mb 82f 74f
6:20pm  -   -   -  13 20 mph 1018.1mb 82f 74f
6:10pm  -   -   -  16 20 mph 1018.3mb 82f 74f
6:00pm  -   -   -  13 20 mph 1018.5mb 82f 74f
5:50pm 5.5ft 8s 6s 13 22 mph 1018.8mb 82f 74f
5:40pm  -   -   -  13 20 mph 1018.8mb 82f 74f
5:30pm  -   -   -  11 18 mph 1019.1mb 82f 74f
5:20pm  -   -   -  13 18 mph 1019.3mb 82f 74f
5:10pm  -   -   -  11 18 mph 1019.3mb 82f 74f
5:00pm  -   -   -  13 20 mph 1019.3mb 82f 74f
4:50pm 6ft 8s 6s 16 20 mph 1019.5mb 82f 74f
4:40pm  -   -   -  13 20 mph 1019.6mb 82f 74f
4:30pm  -   -   -  13 20 mph 1019.7mb - 74f
4:20pm  -   -   -  13 20 mph 1019.8mb 82f 74f
4:10pm  -   -   -  13 18 mph 1019.8mb - 74f
4:00pm  -   -   -  16 25 mph 1019.8mb 82f 74f
3:50pm 6.5ft 8s 6s 16 20 mph 1020mb 82f 74f
3:40pm  -   -   -  13 20 mph 1020mb 82f 74f
3:30pm  -   -   -  13 20 mph 1020.1mb 82f 74f
3:20pm  -   -   -  13 20 mph 1020.1mb 82f 74f
3:10pm  -   -   -  13 20 mph 1020mb 82f 74f
3:00pm  -   -   -  11 18 mph 1020mb 82f 73f
2:50pm 6.5ft 8s 6s 11 18 mph 1020mb 82f 73f
2:40pm  -   -   -  16 22 mph 1019.9mb 82f 74f
2:30pm  -   -   -  16 22 mph 1019.8mb 82f 73f
2:20pm  -   -   -  16 25 mph 1019.8mb 82f 73f
2:10pm  -   -   -  11 18 mph 1019.8mb 82f 73f
2:00pm  -   -   -  11 18 mph 1019.6mb 82f 73f
1:50pm 6.5ft 7s 6s 13 18 mph 1019.5mb 82f 73f
1:40pm  -   -   -  13 18 mph 1019.3mb 82f 73f
1:30pm  -   -   -  13 20 mph 1019.2mb 82f 73f
1:20pm  -   -   -  16 22 mph 1019.1mb 82f 73f
1:10pm  -   -   -  13 18 mph 1019mb 82f 73f
1:00pm  -   -   -  13 20 mph 1018.9mb 82f 73f
12:50pm 7ft 8s 6s 13 20 mph 1019mb 82f 73f
12:40pm  -   -   -  16 20 mph 1018.9mb 82f 73f
12:30pm  -   -   -  16 22 mph 1018.8mb 82f 73f
12:20pm  -   -   -  16 20 mph 1018.8mb 82f 73f
12:10pm  -   -   -  13 22 mph 1018.7mb 82f 73f
12:00pm  -   -   -  16 20 mph 1018.5mb 82f 73f
11:50am 7ft 9s 7s 16 22 mph 1018.4mb - 72f
11:40am  -   -   -  16 22 mph 1018.3mb 82f 73f
11:30am  -   -   -  16 22 mph 1018.2mb 82f 72f
11:20am  -   -   -  16 22 mph 1018.1mb 82f 72f
11:10am  -   -   -  16 25 mph 1018.1mb 82f 72f
11:00am  -   -   -  16 22 mph 1018mb 82f 72f
10:50am 7ft 8s 7s 16 22 mph 1018.2mb 82f 72f
10:40am  -   -   -  13 22 mph 1018.2mb 82f 72f
10:30am  -   -   -  16 22 mph 1018.2mb 82f 72f
10:20am  -   -   -  16 22 mph 1018.2mb 82f 72f
10:10am  -   -   -  16 22 mph 1018.1mb 82f 72f
10:00am  -   -   -  16 25 mph 1018.2mb 82f 72f
9:50am 8ft 8s 7s 18 25 mph 1018.2mb 82f 71f
9:40am  -   -   -  18 25 mph 1018.2mb 82f 71f
9:30am  -   -   -  16 22 mph 1018.3mb 82f 71f
9:20am  -   -   -  18 27 mph 1018.3mb 82f 71f
9:10am  -   -   -  16 25 mph 1018.4mb 82f 71f
9:00am  -   -   -  13 20 mph 1018.4mb 82f 71f
8:50am 7.5ft 8s 7s 18 22 mph 1018.4mb 82f 71f
8:40am 7.5ft  -  7s 18 25 mph 1018.3mb 82f 71f
8:30am  -   -   -  16 22 mph 1018.4mb 82f 71f
8:20am  -   -   -  16 22 mph 1018.5mb 82f 71f
8:10am  -   -   -  16 22 mph 1018.6mb 82f 71f
8:00am  -   -   -  18 27 mph 1018.6mb 82f 71f
7:50am 8ft 8s 7s 18 27 mph 1018.6mb 82f 71f
7:40am 8ft  -  7s 18 25 mph 1018.6mb 82f 71f
7:30am  -   -   -  18 25 mph 1018.8mb 82f 71f
7:20am  -   -   -  18 25 mph 1018.9mb 82f 71f
7:10am  -   -   -  16 22 mph 1018.9mb 82f 70f
7:00am  -   -   -  18 27 mph 1019mb 82f 70f
6:50am 7ft 9s 6s 18 27 mph 1019mb 82f 70f
6:40am  -   -   -  18 25 mph 1019.2mb 82f 70f
6:30am  -   -   -  18 27 mph 1019.3mb 82f 70f
6:20am  -   -   -  16 22 mph 1019.3mb 82f 70f
6:10am  -   -   -  18 27 mph 1019.3mb 82f 70f
6:00am  -   -   -  20 27 mph 1019.3mb 82f 70f
5:50am 8ft 8s 6s 18 27 mph 1019.5mb 82f 70f
5:40am  -   -   -  18 25 mph 1019.5mb 82f 70f
5:30am  -   -   -  18 25 mph 1019.6mb 82f 70f
5:20am  -   -   -  20 27 mph 1019.7mb 82f 70f
5:10am  -   -   -  18 27 mph 1019.7mb 82f 70f
5:00am  -   -   -  18 25 mph 1019.8mb 82f 70f
4:50am 8ft 8s 7s 20 27 mph 1019.8mb 82f 71f
4:40am  -   -   -  18 27 mph 1019.8mb 82f 70f
4:30am  -   -   -  20 31 mph 1019.8mb 82f 70f
4:20am  -   -   -  20 29 mph 1019.8mb 82f 70f
4:10am  -   -   -  18 25 mph 1019.7mb 82f 70f
4:00am  -   -   -  20 29 mph 1019.7mb - 70f
3:50am 8.5ft 9s 7s 22 27 mph 1019.6mb 82f 70f
3:40am  -   -   -  20 29 mph 1019.5mb 82f 70f
3:30am  -   -   -  20 27 mph 1019.6mb 82f 71f
3:20am  -   -   -  20 27 mph 1019.5mb 82f 71f
3:10am  -   -   -  20 27 mph 1019.4mb 82f 71f
3:00am  -   -   -  22 29 mph 1019.4mb 82f 71f
2:50am 8ft 8s 6s 22 29 mph 1019.3mb 82f 71f
2:40am 8ft  -  6s 22 38 mph 1019.2mb 82f 71f
2:30am  -   -   -  20 29 mph 1019.2mb 82f 71f
2:20am  -   -   -  20 27 mph 1019.2mb 82f 71f
2:10am  -   -   -  20 29 mph 1019mb 82f 71f
2:00am  -   -   -  20 27 mph 1018.9mb 82f 71f
1:50am 8.5ft 8s 7s 20 27 mph 1018.8mb 82f 71f
1:40am  -   -   -  20 29 mph 1018.6mb 82f 71f
1:30am  -   -   -  20 27 mph 1018.5mb 82f 71f
1:20am  -   -   -  22 27 mph 1018.4mb 82f 71f
1:10am  -   -   -  20 29 mph 1018.3mb 82f 71f
1:00am  -   -   -  20 27 mph 1018.2mb 82f 71f
12:50am 8ft 8s 7s 20 29 mph 1018.1mb 82f 71f
12:40am 8ft  -  7s 20 29 mph 1018mb 82f 71f
12:30am  -   -   -  20 27 mph 1017.8mb 82f 71f
12:20am  -   -   -  20 27 mph 1017.7mb 82f 71f
12:10am  -   -   -  22 29 mph 1017.6mb 82f 71f
12:00am  -   -   -  20 27 mph 1017.4mb 82f 71f
Sun 11/19 11:50pm 9ft 8s 7s 20 27 mph 1017.3mb 82f 71f
11:40pm  -   -   -  20 27 mph 1017.3mb 82f 71f
11:30pm  -   -   -  22 29 mph 1017.2mb 82f 71f
11:20pm  -   -   -  22 29 mph 1017.1mb 82f 72f
11:10pm  -   -   -  22 29 mph 1017mb 82f 72f
11:00pm  -   -   -  22 29 mph 1016.8mb - 72f
10:50pm 9ft 8s 7s 22 29 mph 1016.7mb 82f 72f
10:40pm  -   -   -  22 29 mph 1016.6mb 82f 72f
10:30pm  -   -   -  22 27 mph 1016.5mb 82f 72f
10:20pm  -   -   -  22 29 mph 1016.4mb 82f 72f
10:10pm  -   -   -  22 29 mph 1016.4mb 82f 72f
10:00pm  -   -   -  22 29 mph 1016.3mb 82f 72f
9:50pm 9ft 8s 6s 22 29 mph 1016.2mb 82f 72f
9:40pm  -   -   -  22 27 mph 1016.1mb 82f 72f
9:30pm  -   -   -  22 29 mph 1016mb 82f 72f
9:20pm  -   -   -  22 29 mph 1016mb 82f 73f
9:10pm  -   -   -  22 29 mph 1015.9mb 82f 72f
9:00pm  -   -   -  22 29 mph 1015.9mb 82f 73f
8:50pm 9ft 8s 7s 22 29 mph 1015.8mb 82f 73f
8:40pm 9ft  -  7s 22 31 mph 1015.8mb 82f 73f
8:30pm  -   -   -  22 29 mph 1015.9mb 82f 73f
8:20pm  -   -   -  20 27 mph 1015.8mb 82f 73f
8:10pm  -   -   -  20 27 mph 1016mb 82f 73f
8:00pm  -   -   -  20 27 mph 1016.8mb 82f 73f
7:50pm 8ft 8s 6s 20 27 mph 1016.1mb 82f 73f
7:40pm  -   -   -  22 27 mph 1016.1mb 82f 73f
7:30pm  -   -   -  22 29 mph 1016.2mb 82f 73f
7:20pm  -   -   -  20 27 mph 1016.3mb 82f 73f
7:10pm  -   -   -  22 29 mph 1016.3mb 82f 73f
7:00pm  -   -   -  22 27 mph 1016.3mb 82f 73f
6:50pm 7ft 7s 6s 22 27 mph 1016.4mb 82f 73f
6:40pm 7ft  -  6s 22 27 mph 1016.4mb 82f 73f
6:30pm  -   -   -  22 27 mph 1016.5mb 82f 74f
6:20pm  -   -   -  22 27 mph 1016.7mb 82f 73f
6:10pm  -   -   -  22 29 mph 1016.8mb 82f 73f
6:00pm  -   -   -  22 29 mph 1016.9mb 82f 73f
5:50pm 5ft 6s 5s 22 29 mph 1017mb 82f 74f
5:40pm 5ft  -  5s 22 29 mph 1017mb 82f 74f
5:30pm  -   -   -  22 27 mph 1017.2mb 82f 74f
5:20pm  -   -   -  22 27 mph 1017.3mb 82f 74f
5:10pm  -   -   -  22 29 mph 1017.3mb 82f 74f
5:00pm  -   -   -  20 27 mph 1017.5mb 82f 74f
4:50pm 5ft 6s 5s 22 27 mph 1017.6mb 82f 73f
4:40pm  -   -   -  20 27 mph 1017.7mb 82f 73f
4:30pm  -   -   -  22 27 mph 1017.7mb 82f 73f
4:20pm  -   -   -  22 27 mph 1017.8mb 82f 73f
4:10pm  -   -   -  22 29 mph 1017.8mb 82f 73f
4:00pm  -   -   -  25 29 mph 1017.7mb 82f 73f
3:50pm 3.5ft 5s 4s 25 31 mph 1017.6mb 82f 73f
3:40pm  -   -   -  22 29 mph 1017.5mb 82f 74f
3:30pm  -   -   -  22 31 mph 1017.5mb 82f 74f
3:20pm  -   -   -  25 29 mph 1017.4mb 82f 74f
3:10pm  -   -   -  25 29 mph 1017.4mb 82f 74f
3:00pm  -   -   -  25 29 mph 1017.2mb 82f 74f
2:50pm 2.5ft 3s 4s 25 29 mph 1017mb 82f 74f
2:40pm  -   -   -  25 29 mph 1016.8mb 82f 74f
2:30pm  -   -   -  25 31 mph 1016.7mb 82f 74f
2:20pm  -   -   -  25 29 mph 1016.5mb 82f 75f
2:10pm  -   -   -  22 29 mph 1016.3mb 82f 76f
2:00pm  -   -   -  22 29 mph 1016.1mb 82f 78f
1:50pm 2.5ft 7s 3s 18 22 mph 1016mb 82f 78f
1:40pm 2.5ft  -  3s 18 22 mph 1015.8mb 82f 78f
1:30pm  -   -   -  16 20 mph 1015.6mb 82f 78f
1:20pm  -   -   -  16 20 mph 1015.5mb 82f 78f
1:10pm  -   -   -  16 20 mph 1015.4mb - 78f
1:00pm  -   -   -  16 20 mph 1016mb 82f 78f
12:50pm 2ft 6s 3s 16 20 mph 1015.2mb 82f 78f
12:40pm 2ft  -  3s 16 20 mph 1015.1mb 82f 78f
12:30pm  -   -   -  16 20 mph 1014.9mb 82f 78f
12:20pm  -   -   -  16 22 mph 1014.8mb 82f 78f
12:10pm  -   -   -  16 20 mph 1014.8mb 82f 78f
12:00pm  -   -   -  16 18 mph 1014.7mb 82f 78f
11:50am 2ft 6s 3s 16 18 mph 1014.7mb 82f 78f
11:40am  -   -   -  13 16 mph 1014.6mb 82f 78f
11:30am  -   -   -  13 16 mph 1014.5mb 82f 78f
11:20am  -   -   -  13 18 mph 1014.5mb 82f 78f
11:10am  -   -   -  13 18 mph 1014.4mb 82f 78f
11:00am  -   -   -  16 18 mph 1014.4mb 82f 78f
10:50am 2ft 6s 4s 16 20 mph 1014.3mb 82f 78f
10:40am  -   -   -  16 20 mph 1014.2mb 82f 78f
10:30am  -   -   -  13 18 mph 1014.1mb 82f 78f
10:20am  -   -   -  13 18 mph 1014.1mb 82f 78f
10:10am  -   -   -  13 18 mph 1014.1mb 82f 78f
10:00am  -   -   -  16 18 mph 1014mb 82f 78f
9:50am 2ft 6s 3s 16 20 mph 1014.1mb - 78f
9:40am 2ft  -  3s 16 20 mph 1014.1mb 82f 78f
9:30am  -   -   -  18 20 mph 1014.1mb - 78f
9:20am  -   -   -  18 22 mph 1014.1mb 82f 78f
9:10am  -   -   -  16 20 mph 1014.1mb 82f 78f
9:00am  -   -   -  16 20 mph 1014.1mb 82f 78f
8:50am 2ft 6s 4s 16 18 mph 1014mb 82f 78f
8:40am  -   -   -  16 18 mph 1014.1mb 82f 78f
8:30am  -   -   -  13 18 mph 1014mb - 78f
8:20am  -   -   -  13 18 mph 1014.1mb 81f 78f
8:10am  -   -   -  13 18 mph 1014.1mb 81f 78f
8:00am  -   -   -  13 18 mph 1014.2mb 81f 78f
7:50am 2.5ft 6s 4s 13 18 mph 1014.2mb 81f 78f
7:40am  -   -   -  11 16 mph 1014.4mb 81f 78f
7:30am  -   -   -  13 16 mph 1014.4mb 81f 78f
7:20am  -   -   -  13 18 mph 1014.6mb 81f 78f
7:10am  -   -   -  13 18 mph 1014.6mb 81f 78f
7:00am  -   -   -  16 20 mph 1014.7mb 81f 78f
6:50am 2.5ft 6s 3s 16 20 mph 1014.8mb 81f 78f
6:40am  -   -   -  16 20 mph 1014.8mb 81f 78f
6:30am  -   -   -  16 20 mph 1014.9mb 81f 78f
6:20am  -   -   -  16 20 mph 1014.9mb 81f 78f
6:10am  -   -   -  16 20 mph 1014.9mb 81f 78f
6:00am  -   -   -  16 20 mph 1015mb 81f 78f
5:50am 2.5ft 6s 3s 16 20 mph 1015mb 81f 78f
5:40am  -   -   -  16 20 mph 1015mb 82f 78f
5:30am  -   -   -  16 20 mph 1015.1mb - 78f
5:20am  -   -   -  16 20 mph 1015.1mb 82f 78f
5:10am  -   -   -  16 20 mph 1015.2mb 82f 78f
5:00am  -   -   -  16 20 mph 1015.3mb 81f 78f
4:50am 2.5ft 6s 4s 16 20 mph 1015.4mb 81f 78f
4:40am  -   -   -  16 20 mph 1015.4mb 81f 78f
4:30am  -   -   -  16 18 mph 1015.5mb 81f 78f
4:20am  -   -   -  16 18 mph 1015.4mb - 78f
4:10am  -   -   -  16 20 mph 1015.4mb 81f 78f
4:00am  -   -   -  16 20 mph 1015.4mb 81f 78f
3:50am 2.5ft 6s 4s 16 20 mph 1015.4mb 81f 78f
3:40am  -   -   -  16 18 mph 1015.4mb 81f 78f
3:30am  -   -   -  16 18 mph 1015.3mb 82f 78f
3:20am  -   -   -  13 18 mph 1015.1mb 82f 78f
3:10am  -   -   -  13 18 mph 1015.1mb 82f 78f
3:00am  -   -   -  13 18 mph 1015mb 82f 78f
2:50am 2.5ft 6s 4s 13 18 mph 1014.9mb 81f 78f
2:40am  -   -   -  13 16 mph 1014.9mb 82f 78f
2:30am  -   -   -  13 16 mph 1014.9mb 82f 79f
2:20am  -   -   -  11 16 mph 1014.8mb 81f 79f
2:10am  -   -   -  11 13 mph 1014.8mb 81f 79f
2:00am  -   -   -  9 13 mph 1014.6mb 81f 78f
1:50am 2.5ft 6s 4s 11 13 mph 1014.4mb 82f 78f
1:40am  -   -   -  9 13 mph 1014.5mb 81f 79f
1:30am  -   -   -  11 13 mph 1014.4mb 82f 79f
1:20am  -   -   -  9 13 mph 1014.3mb 81f 79f
1:10am  -   -   -  7 11 mph 1014.1mb 82f 79f
1:00am  -   -   -  9 11 mph 1014mb 82f 79f
12:50am 2.5ft 6s 4s 9 11 mph 1013.8mb 82f 79f
12:40am 2.5ft  -  4s 9 11 mph 1014.6mb 82f 79f
12:30am  -   -   -  9 13 mph 1013.7mb 82f 79f
12:20am  -   -   -  11 13 mph 1013.4mb - 79f
12:10am  -   -   -  11 13 mph 1013.3mb 82f 79f
12:00am  -   -   -  9 11 mph 1013.2mb 82f 79f
Sat 11/18 11:50pm 2.5ft 5s 4s 11 13 mph 1013mb 82f 79f
11:40pm  -   -   -  11 13 mph 1012.8mb 82f 79f
11:30pm  -   -   -  11 13 mph 1012.7mb 82f 79f
11:20pm  -   -   -  9 13 mph 1012.8mb 82f 79f
11:10pm  -   -   -  11 13 mph 1012.8mb 82f 79f
11:00pm  -   -   -  11 16 mph 1012.7mb 82f 79f
10:50pm 2.5ft 6s 4s 11 13 mph 1012.7mb 82f 80f
10:40pm  -   -   -  9 13 mph 1012.7mb 82f 79f
10:30pm  -   -   -  11 13 mph 1012.6mb 82f 79f
10:20pm  -   -   -  11 13 mph 1012.6mb 82f 79f
10:10pm  -   -   -  11 16 mph 1012.5mb 82f 79f
10:00pm  -   -   -  11 13 mph 1012.5mb 82f 80f
9:50pm 2.5ft 6s 4s 11 16 mph 1012.4mb 82f 79f
9:40pm  -   -   -  13 18 mph 1012.3mb 82f 79f
9:30pm  -   -   -  13 18 mph 1012.2mb 82f 79f
9:20pm  -   -   -  13 18 mph 1012.3mb 82f 79f
9:10pm  -   -   -  13 18 mph 1012.4mb 82f 79f
9:00pm  -   -   -  13 18 mph 1012.5mb 82f 79f
8:50pm 2.5ft 6s 4s 13 18 mph 1012.5mb 82f 79f
8:40pm 2.5ft  -  4s 13 18 mph 1012.5mb 82f 79f
8:30pm  -   -   -  13 18 mph 1012.6mb 82f 79f
8:20pm  -   -   -  13 16 mph 1012.7mb 82f 79f
8:10pm  -   -   -  13 16 mph 1012.8mb 82f 79f
8:00pm  -   -   -  11 16 mph 1012.8mb 82f 79f
7:50pm 2.5ft 6s 4s 13 16 mph 1013mb 82f 79f
7:40pm  -   -   -  13 16 mph 1013mb 82f 79f
7:30pm  -   -   -  11 16 mph 1013.2mb 82f 79f
7:20pm  -   -   -  11 16 mph 1013.2mb 82f 79f
7:10pm  -   -   -  11 16 mph 1013.3mb 82f 79f
7:00pm  -   -   -  11 16 mph 1013.4mb 82f 79f
6:50pm 2.5ft 6s 5s 11 13 mph 1013.5mb 82f 79f
6:40pm 2.5ft  -  5s 11 16 mph 1013.7mb 82f 79f
6:30pm  -   -   -  11 13 mph 1013.8mb 82f 79f
6:20pm  -   -   -  11 16 mph 1014.1mb 82f 79f
6:10pm  -   -   -  11 13 mph 1014.3mb 82f 79f
6:00pm  -   -   -  11 16 mph 1014.4mb 82f 79f
5:50pm 2.5ft 6s 5s 13 16 mph 1014.5mb 82f 79f
5:40pm 2.5ft  -  5s 9 13 mph 1014.7mb 82f 79f
5:30pm  -   -   -  11 16 mph 1014.9mb 82f 79f
5:20pm  -   -   -  11 16 mph 1014.9mb 82f 79f
5:10pm  -   -   -  11 16 mph 1015.1mb - 79f
5:00pm  -   -   -  11 16 mph 1015.1mb 82f 79f
4:50pm 2.5ft 6s 5s 11 16 mph 1015.2mb 82f 79f
4:40pm  -   -   -  11 16 mph 1015.4mb 82f 79f
4:30pm  -   -   -  11 13 mph 1015.6mb 82f 79f
4:20pm  -   -   -  9 16 mph 1015.8mb 82f 79f
4:10pm  -   -   -  9 13 mph 1016mb 82f 79f
4:00pm  -   -   -  9 13 mph 1016mb 82f 79f
3:50pm 2.5ft 6s 5s 11 16 mph 1016mb 82f 79f
3:40pm  -   -   -  9 13 mph 1016mb 82f 79f
3:30pm  -   -   -  9 13 mph 1016mb 82f 79f
3:20pm  -   -   -  9 13 mph 1016mb 82f 79f
3:10pm  -   -   -  9 13 mph 1015.9mb 82f 79f
3:00pm  -   -   -  9 13 mph 1015.8mb 82f 78f
2:50pm 2.5ft 6s 5s 9 16 mph 1015.8mb 82f 78f
2:40pm  -   -   -  11 13 mph 1015.6mb 82f 78f
2:30pm  -   -   -  11 16 mph 1015.5mb 82f 78f
2:20pm  -   -   -  11 16 mph 1015.4mb 82f 78f
2:10pm  -   -   -  11 16 mph 1015.4mb 82f 78f
2:00pm  -   -   -  11 16 mph 1015.4mb - 78f
1:50pm 2.5ft 6s 5s 9 13 mph 1015.4mb 81f 78f
1:40pm  -   -   -  9 13 mph 1015.4mb 81f 78f
1:30pm  -   -   -  11 13 mph 1015.4mb 81f 78f
1:20pm  -   -   -  11 16 mph 1015.3mb 81f 78f
1:10pm  -   -   -  11 16 mph 1015.2mb 81f 78f
1:00pm  -   -   -  13 16 mph 1015mb 81f 78f
12:50pm 3ft 6s 5s 11 16 mph 1015mb 81f 78f
12:40pm  -   -   -  11 16 mph 1015mb - 78f
12:30pm  -   -   -  13 18 mph 1015mb 81f 78f
12:20pm  -   -   -  13 18 mph 1014.9mb 81f 78f
12:10pm  -   -   -  11 16 mph 1014.9mb 81f 78f
12:00pm  -   -   -  13 18 mph 1014.7mb 81f 78f
11:50am 2.5ft 6s 5s 11 16 mph 1014.6mb 81f 78f
11:40am  -   -   -  13 16 mph 1014.6mb 81f 78f
11:30am  -   -   -  11 16 mph 1014.5mb 81f 78f
11:20am  -   -   -  13 16 mph 1014.5mb 81f 78f
11:10am  -   -   -  13 16 mph 1014.6mb 81f 78f
11:00am  -   -   -  13 16 mph 1014.5mb 81f 78f
10:50am 3.5ft 6s 5s 11 13 mph 1014.5mb 81f 78f
10:40am  -   -   -  11 16 mph 1014.6mb 81f 78f
10:30am  -   -   -  11 16 mph 1014.7mb 81f 78f
10:20am  -   -   -  13 18 mph 1014.7mb 81f 78f
10:10am  -   -   -  13 16 mph 1014.7mb - 78f
10:00am  -   -   -  11 13 mph 1014.8mb 81f 78f
9:50am 3ft 6s 5s 11 13 mph 1014.8mb 81f 78f
9:40am 3ft  -  5s 11 16 mph 1014.8mb 81f 78f
9:30am  -   -   -  11 18 mph 1014.8mb 81f 78f
9:20am  -   -   -  11 16 mph 1014.9mb 81f 78f
9:10am  -   -   -  13 16 mph 1014.9mb 81f 78f
9:00am  -   -   -  11 16 mph 1014.9mb 81f 77f
8:50am 3ft 6s 5s 11 16 mph 1014.8mb 81f 78f
8:40am  -   -   -  11 16 mph 1014.8mb 81f 78f
8:30am  -   -   -  11 16 mph 1014.9mb 81f 78f
8:20am  -   -   -  11 16 mph 1015.1mb 81f 78f
8:10am  -   -   -  11 16 mph 1015.1mb 81f 78f
8:00am  -   -   -  11 16 mph 1015.1mb 81f 78f
7:50am 3ft 6s 5s 13 16 mph 1015.2mb 81f 78f
7:40am 3ft  -  5s 11 18 mph 1015.3mb 81f 78f
7:30am  -   -   -  11 16 mph 1015.4mb 81f 78f
7:20am  -   -   -  13 18 mph 1015.4mb 81f 78f
7:10am  -   -   -  13 18 mph 1015.4mb 81f 78f
7:00am  -   -   -  13 18 mph 1015.7mb - 78f
6:50am 2.5ft 6s 4s 13 20 mph 1015.8mb 81f 78f
6:40am  -   -   -  13 18 mph 1015.9mb 81f 78f
6:30am  -   -   -  13 18 mph 1015.9mb 81f 78f
6:20am  -   -   -  13 18 mph 1015.9mb 81f 78f
6:10am  -   -   -  13 18 mph 1015.9mb 81f 78f
6:00am  -   -   -  13 18 mph 1016mb 81f 78f
5:50am 2.5ft 6s 5s 13 18 mph 1016mb 81f 78f
5:40am  -   -   -  11 16 mph 1016.2mb 81f 78f
5:30am  -   -   -  11 16 mph 1016.3mb 81f 78f
5:20am  -   -   -  11 16 mph 1016.4mb 81f 78f
5:10am  -   -   -  11 16 mph 1016.4mb 81f 78f
5:00am  -   -   -  11 18 mph 1016.5mb 81f 78f
4:50am 3ft 6s 5s 11 16 mph 1016.5mb 81f 78f
4:40am  -   -   -  11 16 mph 1016.7mb 81f 78f
4:30am  -   -   -  11 16 mph 1016.8mb 81f 78f
4:20am  -   -   -  11 16 mph 1016.9mb 81f 78f
4:10am  -   -   -  11 18 mph 1017mb 81f 78f
4:00am  -   -   -  11 16 mph 1017.1mb 81f 78f
3:50am 3ft 6s 5s 11 16 mph 1017.2mb 81f 78f
3:40am  -   -   -  11 18 mph 1017.3mb 81f 78f
3:30am  -   -   -  11 16 mph 1017.3mb 80f 78f
3:20am  -   -   -  13 16 mph 1017.4mb - 78f
3:10am  -   -   -  11 16 mph 1017.3mb 80f 78f
3:00am  -   -   -  11 16 mph 1017.3mb 80f 78f
2:50am 3ft 6s 5s 11 16 mph 1017.4mb 80f 78f
2:40am  -   -   -  13 20 mph 1017.4mb 80f 78f
2:30am  -   -   -  11 16 mph 1017.4mb 80f 77f
2:20am  -   -   -  11 16 mph 1017.4mb 80f 77f
2:10am  -   -   -  9 13 mph 1017.4mb 80f 77f
2:00am  -   -   -  9 13 mph 1017.4mb 80f 77f
1:50am 3ft 6s 5s 9 13 mph 1017.3mb 80f 77f
1:40am  -   -   -  9 13 mph 1017.2mb 80f 77f
1:30am  -   -   -  9 13 mph 1017.1mb 80f 77f
1:20am  -   -   -  11 16 mph 1017mb 80f 77f
1:10am  -   -   -  11 16 mph 1016.9mb 80f 77f
1:00am  -   -   -  11 13 mph 1016.8mb 80f 77f
12:50am 3ft 6s 5s 11 13 mph 1016.8mb 80f 77f
12:40am  -   -   -  11 13 mph 1016.8mb 80f 77f
12:30am  -   -   -  11 16 mph 1016.8mb 80f 77f
12:20am  -   -   -  11 16 mph 1016.8mb 80f 77f
12:10am  -   -   -  11 16 mph 1016.8mb 80f 77f
12:00am  -   -   -  11 13 mph 1016.8mb 80f 77f
Fri 11/17 11:50pm 3ft 6s 5s 11 13 mph 1016.8mb 80f 77f
11:40pm 3ft  -  5s 9 13 mph 1016.8mb 80f 77f
11:30pm  -   -   -  9 13 mph 1016.7mb 80f 77f
11:20pm  -   -   -  9 13 mph 1016.7mb 80f 77f
11:10pm  -   -   -  11 13 mph 1016.7mb 80f 77f
11:00pm  -   -   -  9 13 mph 1016.6mb 80f 77f
10:50pm 3ft 6s 5s 9 13 mph 1016.7mb 80f 77f
10:40pm  -   -   -  9 13 mph 1016.8mb 80f 77f
10:30pm  -   -   -  9 13 mph 1016.7mb - 77f
10:20pm  -   -   -  9 11 mph 1016.7mb 80f 77f
10:10pm  -   -   -  9 13 mph 1016.7mb 80f 77f
10:00pm  -   -   -  11 13 mph 1016.6mb 80f 78f
9:50pm 3ft 6s 5s 9 13 mph 1016.5mb 80f 77f
9:40pm 3ft  -  5s 11 13 mph 1016.5mb 80f 77f
9:30pm  -   -   -  9 11 mph 1016.6mb 80f 77f
9:20pm  -   -   -  9 13 mph 1016.5mb 80f 77f
9:10pm  -   -   -  11 13 mph 1016.5mb 80f 77f
9:00pm  -   -   -  9 13 mph 1016.5mb 80f 77f
8:50pm 3.5ft 6s 5s 9 13 mph 1016.5mb 80f 77f
8:40pm  -   -   -  9 13 mph 1016.5mb 80f 77f
8:30pm  -   -   -  9 13 mph 1016.6mb 80f 77f
8:20pm  -   -   -  9 13 mph 1016.7mb 80f 77f
8:10pm  -   -   -  9 13 mph 1016.9mb 80f 77f
8:00pm  -   -   -  9 11 mph 1017mb 80f 77f
7:50pm 3ft 6s 5s 9 11 mph 1017.1mb 80f 77f
7:40pm 3ft  -  5s 9 13 mph 1017.2mb 80f 77f
7:30pm  -   -   -  9 13 mph 1017.3mb 80f 77f
7:20pm  -   -   -  9 13 mph 1017.5mb 80f 77f
7:10pm  -   -   -  9 13 mph 1017.7mb 80f 77f
7:00pm  -   -   -  9 16 mph 1017.8mb 80f 77f
6:50pm 3.5ft 6s 5s 11 16 mph 1017.9mb 80f 77f
6:40pm 3.5ft  -  5s 11 16 mph 1018mb 80f 77f
6:30pm  -   -   -  11 13 mph 1018.2mb 80f 77f
6:20pm  -   -   -  9 16 mph 1018.3mb 80f 77f
6:10pm  -   -   -  9 11 mph 1018.4mb - 77f
6:00pm  -   -   -  11 16 mph 1018.4mb 80f 77f
5:50pm 3.5ft 6s 5s 9 13 mph 1018.5mb 80f 77f
5:40pm  -   -   -  11 16 mph 1018.8mb 80f 77f
5:30pm  -   -   -  11 13 mph 1018.8mb 80f 77f
5:20pm  -   -   -  11 13 mph 1019mb 80f 77f
5:10pm  -   -   -  11 16 mph 1019.1mb 80f 77f
5:00pm  -   -   -  11 13 mph 1019.2mb 80f 77f
4:50pm 3ft 6s 5s 11 16 mph 1019.3mb 80f 77f
4:40pm  -   -   -  9 13 mph 1019.3mb 80f 77f
4:30pm  -   -   -  9 13 mph 1019.3mb 80f 77f
4:20pm  -   -   -  11 13 mph 1019.4mb 80f 77f
4:10pm  -   -   -  11 16 mph 1019.5mb 80f 77f
4:00pm  -   -   -  11 13 mph 1019.6mb 80f 77f
3:50pm 3.5ft 6s 5s 11 16 mph 1019.7mb 80f 77f
3:40pm 3.5ft  -  5s 11 13 mph 1019.7mb 80f 77f
3:30pm  -   -   -  9 13 mph 1019.6mb 80f 77f
3:20pm  -   -   -  11 16 mph 1019.6mb 80f 77f
3:10pm  -   -   -  9 13 mph 1019.6mb 80f 77f
3:00pm  -   -   -  11 13 mph 1019.6mb 80f 77f
2:50pm 3ft 6s 5s 9 13 mph 1019.6mb 80f 77f
2:40pm  -   -   -  11 16 mph 1019.4mb 80f 77f
2:30pm  -   -   -  11 16 mph 1019.4mb 80f 77f
2:20pm  -   -   -  11 16 mph 1019.3mb 80f 77f
2:10pm  -   -   -  11 16 mph 1019.2mb 80f 77f
2:00pm  -   -   -  11 16 mph 1019.1mb 80f 77f
1:50pm 3ft 6s 5s 11 13 mph 1019mb 80f 77f
1:40pm  -   -   -  9 16 mph 1018.9mb 80f 77f
1:30pm  -   -   -  9 11 mph 1018.8mb 80f 77f
1:20pm  -   -   -  9 13 mph 1018.7mb 80f 77f
1:10pm  -   -   -  11 13 mph 1018.7mb 80f 77f
1:00pm  -   -   -  9 13 mph 1018.7mb 80f 77f
12:50pm 3ft 6s 5s 9 13 mph 1018.7mb 80f 77f